Regional Weather Roundup
Issued by NWS

Home | Current Version | Previous Version | Graphics & Text | Print | Product List | Glossary On
Versions: 1 2 3 4 5 6 7 8 9 10 11 12 13 14 15 16 17 18 19 20 21 22 23 24 25 26 27 28 29 30 31 32 33 34 35 36 37 38 39 40 41 42 43 44 45 46 47 48 49 50
000
ASUS43 KFSD 270110
RWRSD

WEATHER ROUNDUP FOR SOUTH DAKOTA
NATIONAL WEATHER SERVICE SIOUX FALLS SD
800 PM CDT FRI AUG 26 2016

NOTE: "FAIR" INDICATES FEW OR NO CLOUDS BELOW 12,000 FEET WITH NO
SIGNIFICANT WEATHER AND/OR OBSTRUCTIONS TO VISIBILITY.


SDZ001>005-009-010-012>017-270200-
NORTHWEST AND NORTH CENTRAL SOUTH DAKOTA

CITY           SKY/WX    TMP DP  RH WIND       PRES   REMARKS
BUFFALO          N/A     63  49  60 S9        29.94F
FAITH            N/A     61  58  90 S10       30.04R
MOBRIDGE       CLOUDY    61  53  75 SE10      30.02S
$$

SDZ012>016-024>037-041>051-057-063-072>074-270200-
SOUTHWEST AND SOUTH CENTRAL SOUTH DAKOTA

CITY           SKY/WX    TMP DP  RH WIND       PRES   REMARKS
RAPID CTY ARPT LGT RAIN  60  56  86 NE8       30.03R
PIERRE         CLOUDY    65  54  67 E7        30.02S
CUSTER         CLEAR     60  45  57 CALM      30.09R
ELLSWORTH AFB  CLOUDY    63  58  84 NE5       30.03
PHILIP         CLEAR     64  57  78 E9        30.02R
PINE RIDGE     CLOUDY    68  54  60 S13G18    30.01S
WINNER         FAIR      66  59  78 E5        30.02S
$$

SDZ004>011-016>023-039-040-270200-
NORTHEAST SOUTH DAKOTA

CITY           SKY/WX    TMP DP  RH WIND       PRES   REMARKS
ABERDEEN       CLOUDY    62  57  83 CALM      30.05F
WATERTOWN      MOCLDY    66  52  60 SE3       30.07F
BROOKINGS      PTCLDY    66  56  70 SE9       30.06F
SISSETON         N/A     65  62  90 CALM      30.04F
$$

SDZ017-020-022-023-036>040-048>070-270200-
SOUTHEAST SOUTH DAKOTA

CITY           SKY/WX    TMP DP  RH WIND       PRES   REMARKS
SIOUX FALLS    CLOUDY    69  59  70 E12       30.07F
HURON          CLOUDY    64  56  75 E7        30.03F
CHAMBERLAIN    PTCLDY    68  55  63 E6        30.03R
MITCHELL       PTCLDY    69  55  60 SE12      30.01F
YANKTON        CLOUDY    70  57  64 E7        30.04F
$$

ABBREVIATIONS USED IN REMARKS
   TC - TEMPERATURE IN CELSIUS
  WCI - WIND CHILL INDEX
   HX - HEAT INDEX
  VSB - VISIBILITY





USA.gov is the U.S. government's official web portal to all federal, state and local government web resources and services.